"read_dt","SO2 (ppb)","flags","PMT voltage (V)","lamp voltage (V)","lamp intensity (Hz)","internal temp (C)","react chamber temp (C)","sample flow (l/min)","pres (mmHg)","SO2 bkg (ppb)","SO2 coefficient"
2013-09-10 00:00:00,6223E-5,5C000000,-0724,0943,11038,027.9,045.4,0.389,729.4,01.19,0.508
2013-09-10 00:01:00,1130E-4,5C000000,-0724,0943,11215,027.9,045.4,0.389,729.4,01.19,0.508
2013-09-10 00:02:00,1204E-4,5C000000,-0724,0942,10945,027.9,045.4,0.389,729.3,01.19,0.508
2013-09-10 00:03:00,9409E-5,5C000000,-0724,0943,11151,027.9,045.3,0.389,729.3,01.19,0.508
2013-09-10 00:04:00,1459E-4,5C000000,-0724,0943,11104,027.9,045.3,0.389,729.3,01.19,0.508
2013-09-10 00:05:00,4010E-5,5C000000,-0724,0943,11163,027.9,045.4,0.389,729.3,01.19,0.508
2013-09-10 00:06:00,8619E-5,5C000000,-0724,0943,11004,028.0,045.4,0.389,729.3,01.19,0.508
2013-09-10 00:07:00,3592E-5,5C000000,-0724,0944,11111,028.0,045.3,0.389,729.3,01.19,0.508
2013-09-10 00:08:00,2208E-4,5C000000,-0724,0943,11120,028.0,045.4,0.389,729.3,01.19,0.508
2013-09-10 00:09:00,9027E-5,5C000000,-0724,0943,10139,028.0,045.4,0.389,729.3,01.19,0.508
2013-09-10 00:10:00,1328E-4,5C000000,-0724,0943,11113,028.0,045.4,0.389,729.2,01.19,0.508
2013-09-10 00:11:00,1143E-4,5C000000,-0724,0944,11058,028.0,045.4,0.389,729.3,01.19,0.508
2013-09-10 00:12:00,1544E-4,5C000000,-0724,0943,11078,028.0,045.4,0.389,729.2,01.19,0.508
2013-09-10 00:13:00,1654E-4,5C000000,-0724,0941,11099,028.0,045.4,0.389,729.2,01.19,0.508
2013-09-10 00:14:00,1778E-4,5C000000,-0724,0943,11080,028.0,045.4,0.389,729.3,01.19,0.508
2013-09-10 00:15:00,1440E-4,5C000000,-0724,0943,11082,028.0,045.4,0.389,729.2,01.19,0.508
2013-09-10 00:16:00,9553E-5,5C000000,-0724,0940,10930,028.0,045.4,0.389,729.2,01.19,0.508
2013-09-10 00:17:00,1310E-4,5C000000,-0724,0941,11178,027.9,045.4,0.388,729.2,01.19,0.508
2013-09-10 00:18:00,6692E-5,5C000000,-0724,0941,11162,027.9,045.4,0.389,729.2,01.19,0.508
2013-09-10 00:19:00,1240E-4,5C000000,-0724,0941,11154,028.0,045.4,0.388,729.2,01.19,0.508
2013-09-10 00:20:00,1036E-4,5C000000,-0724,0940,9987,027.9,045.4,0.388,729.2,01.19,0.508
2013-09-10 00:21:00,1307E-4,5C000000,-0724,0941,11264,027.9,045.4,0.388,729.2,01.19,0.508
2013-09-10 00:22:00,1294E-4,5C000000,-0724,0940,11054,027.9,045.4,0.388,729.2,01.19,0.508
2013-09-10 00:23:00,1753E-4,5C000000,-0724,0940,11082,027.9,045.4,0.388,729.2,01.19,0.508
2013-09-10 00:24:00,1782E-4,5C000000,-0724,0942,11188,027.9,045.4,0.388,729.2,01.19,0.508
2013-09-10 00:25:00,1041E-4,5C000000,-0724,0940,11140,027.9,045.4,0.389,729.2,01.19,0.508
2013-09-10 00:26:00,1435E-4,5C000000,-0724,0940,11298,027.9,045.4,0.388,729.2,01.19,0.508
2013-09-10 00:27:00,1872E-4,5C000000,-0724,0940,11027,027.9,045.3,0.389,729.2,01.19,0.508
2013-09-10 00:28:00,1121E-4,5C000000,-0724,0941,11041,027.8,045.3,0.389,729.2,01.19,0.508
2013-09-10 00:29:00,1830E-4,5C000000,-0724,0940,11448,027.8,045.4,0.389,729.2,01.19,0.508
2013-09-10 00:30:00,9627E-5,5C000000,-0724,0941,11248,027.8,045.4,0.389,729.2,01.19,0.508
2013-09-10 00:31:00,1659E-4,5C000000,-0724,0939,11142,027.8,045.3,0.389,729.2,01.19,0.508
2013-09-10 00:32:00,1540E-4,5C000000,-0724,0940,11028,027.8,045.4,0.389,729.2,01.19,0.508
2013-09-10 00:33:00,1413E-4,5C000000,-0724,0940,11005,027.8,045.4,0.389,729.1,01.19,0.508
2013-09-10 00:34:00,1453E-4,5C000000,-0724,0940,11138,027.7,045.4,0.389,729.3,01.19,0.508
2013-09-10 00:35:00,5346E-5,5C000000,-0724,0941,11077,027.8,045.3,0.389,729.2,01.19,0.508
2013-09-10 00:36:00,1213E-4,5C000000,-0724,0941,11283,027.8,045.4,0.389,729.2,01.19,0.508
2013-09-10 00:37:00,7814E-5,5C000000,-0724,0941,11154,027.8,045.4,0.389,729.2,01.19,0.508
2013-09-10 00:38:00,8753E-5,5C000000,-0724,0944,10946,027.8,045.4,0.389,729.2,01.19,0.508
2013-09-10 00:39:00,1232E-4,5C000000,-0724,0944,11128,027.8,045.4,0.389,729.3,01.19,0.508
2013-09-10 00:40:00,1802E-4,5C000000,-0724,0943,11042,027.8,045.4,0.389,729.2,01.19,0.508
2013-09-10 00:41:00,1051E-4,5C000000,-0724,0943,11169,027.8,045.3,0.389,729.2,01.19,0.508
2013-09-10 00:42:00,1687E-4,5C000000,-0724,0944,10899,027.8,045.3,0.389,729.2,01.19,0.508
2013-09-10 00:43:00,1405E-4,5C000000,-0724,0944,11050,027.8,045.3,0.389,729.2,01.19,0.508
2013-09-10 00:44:00,7553E-5,5C000000,-0724,0944,11183,027.8,045.4,0.389,729.2,01.19,0.508
2013-09-10 00:45:00,1606E-4,5C000000,-0724,0944,11019,027.8,045.3,0.389,729.2,01.19,0.508
2013-09-10 00:46:00,5122E-5,5C000000,-0724,0944,10998,027.8,045.3,0.389,729.2,01.19,0.508
2013-09-10 00:47:00,1295E-4,5C000000,-0724,0943,11173,027.8,045.3,0.389,729.2,01.19,0.508
2013-09-10 00:48:00,1254E-4,5C000000,-0724,0943,11139,027.8,045.3,0.389,729.2,01.19,0.508
2013-09-10 00:49:00,1330E-4,5C000000,-0724,0944,11143,027.8,045.3,0.389,729.2,01.19,0.508
2013-09-10 00:50:00,9131E-5,5C000000,-0724,0943,11026,027.9,045.3,0.389,729.2,01.19,0.508
2013-09-10 00:51:00,6544E-5,5C000000,-0724,0945,11131,027.8,045.3,0.389,729.2,01.19,0.508
2013-09-10 00:52:00,9692E-5,5C000000,-0724,0943,11097,027.8,045.4,0.389,729.2,01.19,0.508
2013-09-10 00:53:00,9381E-5,5C000000,-0724,0943,11183,027.8,045.4,0.389,729.2,01.19,0.508
2013-09-10 00:54:00,1141E-4,5C000000,-0724,0943,11126,027.8,045.3,0.389,729.2,01.19,0.508
2013-09-10 00:55:00,1677E-4,5C000000,-0724,0943,10916,027.8,045.4,0.389,729.2,01.19,0.508
2013-09-10 00:56:00,1162E-4,5C000000,-0724,0944,11059,027.8,045.4,0.389,729.2,01.19,0.508
2013-09-10 00:57:00,9687E-5,5C000000,-0724,0944,10882,027.8,045.4,0.389,729.1,01.19,0.508
2013-09-10 00:58:00,2099E-4,5C000000,-0724,0943,11153,027.7,045.4,0.389,729.2,01.19,0.508
2013-09-10 00:59:00,6380E-5,5C000000,-0724,0944,11103,027.8,045.4,0.389,729.2,01.19,0.508
2013-09-10 01:00:00,1468E-4,5C000000,-0724,0944,11129,027.7,045.4,0.389,729.2,01.19,0.508
2013-09-10 01:01:00,9857E-5,5C000000,-0724,0943,10968,027.8,045.3,0.389,729.2,01.19,0.508
2013-09-10 01:02:00,1178E-4,5C000000,-0724,0943,11123,027.8,045.4,0.389,729.2,01.19,0.508
2013-09-10 01:03:00,1299E-5,5C000000,-0724,0945,11104,027.8,045.3,0.389,729.2,01.19,0.508
2013-09-10 01:04:00,7535E-5,5C000000,-0724,0944,11171,027.8,045.3,0.389,729.2,01.19,0.508
2013-09-10 01:05:00,1287E-4,5C000000,-0724,0943,11129,027.8,045.3,0.389,729.2,01.19,0.508
2013-09-10 01:06:00,8810E-6,5C000000,-0724,0944,10927,027.8,045.3,0.389,729.2,01.19,0.508
2013-09-10 01:07:00,1427E-4,5C000000,-0724,0943,11040,027.9,045.4,0.389,729.1,01.19,0.508
2013-09-10 01:08:00,6082E-5,5C000000,-0724,0944,10881,027.8,045.3,0.389,729.1,01.19,0.508
2013-09-10 01:09:00,2253E-4,5C000000,-0724,0944,11048,027.8,045.4,0.389,729.2,01.19,0.508
2013-09-10 01:10:00,1295E-4,5C000000,-0724,0944,11075,027.8,045.3,0.389,729.2,01.19,0.508
2013-09-10 01:11:00,2030E-4,5C000000,-0724,0944,11140,027.8,045.4,0.389,729.2,01.19,0.508
2013-09-10 01:12:00,1577E-4,5C000000,-0724,0943,11025,027.8,045.4,0.389,729.2,01.19,0.508
2013-09-10 01:13:00,7428E-5,5C000000,-0724,0944,10947,027.8,045.4,0.389,729.2,01.19,0.508
2013-09-10 01:14:00,1297E-4,5C000000,-0724,0945,11070,027.8,045.3,0.389,729.1,01.19,0.508
2013-09-10 01:15:00,6236E-5,5C000000,-0724,0944,11225,027.8,045.3,0.389,729.1,01.19,0.508
2013-09-10 01:16:00,1336E-4,5C000000,-0724,0943,11077,027.7,045.3,0.389,729.2,01.19,0.508
2013-09-10 01:17:00,9502E-5,5C000000,-0724,0944,10894,027.7,045.3,0.389,729.1,01.19,0.508
2013-09-10 01:18:00,1389E-4,5C000000,-0724,0944,11084,027.8,045.4,0.389,729.1,01.19,0.508
2013-09-10 01:19:00,1552E-4,5C000000,-0724,0945,10970,027.8,045.3,0.389,729.1,01.19,0.508
2013-09-10 01:20:00,2120E-4,5C000000,-0724,0944,11101,027.8,045.3,0.389,729.2,01.19,0.508
2013-09-10 01:21:00,2018E-5,5C000000,-0724,0944,10949,027.8,045.4,0.389,729.1,01.19,0.508
2013-09-10 01:22:00,9964E-5,5C000000,-0724,0944,11102,027.8,045.4,0.389,729.1,01.19,0.508
2013-09-10 01:23:00,1601E-4,5C000000,-0724,0944,11101,027.9,045.4,0.389,729.1,01.19,0.508
2013-09-10 01:24:00,1088E-4,5C000000,-0724,0944,11103,027.9,045.4,0.389,729.1,01.19,0.508
2013-09-10 01:25:00,1597E-4,5C000000,-0724,0945,10967,027.9,045.4,0.389,729.1,01.19,0.508
2013-09-10 01:26:00,1366E-4,5C000000,-0724,0944,11135,027.8,045.4,0.389,729.0,01.19,0.508
2013-09-10 01:27:00,1984E-4,5C000000,-0724,0943,11118,027.9,045.4,0.389,729.0,01.19,0.508
2013-09-10 01:28:00,1591E-4,5C000000,-0724,0944,10953,027.8,045.4,0.389,729.1,01.19,0.508
2013-09-10 01:29:00,1599E-4,5C000000,-0724,0944,11162,027.8,045.4,0.389,729.1,01.19,0.508
2013-09-10 01:30:00,1662E-4,5C000000,-0724,0944,10831,027.8,045.3,0.389,729.1,01.19,0.508
2013-09-10 01:31:00,1637E-4,5C000000,-0724,0944,11121,027.8,045.4,0.389,729.0,01.19,0.508
2013-09-10 01:32:00,1166E-4,5C000000,-0724,0943,11119,027.8,045.4,0.389,729.0,01.19,0.508
2013-09-10 01:33:00,1769E-4,5C000000,-0724,0943,11162,027.8,045.4,0.389,729.0,01.19,0.508
2013-09-10 01:34:00,7783E-5,5C000000,-0724,0943,11043,027.8,045.4,0.389,729.0,01.19,0.508
2013-09-10 01:35:00,1384E-4,5C000000,-0724,0943,11051,027.8,045.4,0.389,729.0,01.19,0.508
2013-09-10 01:36:00,4302E-5,5C000000,-0724,0944,11213,027.8,045.4,0.389,729.0,01.19,0.508
2013-09-10 01:37:00,2031E-4,5C000000,-0724,0945,11091,027.8,045.3,0.389,729.0,01.19,0.508
2013-09-10 01:38:00,1785E-4,5C000000,-0724,0944,11036,027.8,045.3,0.389,729.0,01.19,0.508
2013-09-10 01:39:00,1497E-4,5C000000,-0724,0944,10945,027.8,045.4,0.389,729.0,01.19,0.508
2013-09-10 01:40:00,9888E-5,5C000000,-0724,0944,11161,027.8,045.4,0.389,729.0,01.19,0.508
2013-09-10 01:41:00,2193E-4,5C000000,-0724,0944,11054,027.8,045.4,0.389,729.0,01.19,0.508
2013-09-10 01:42:00,1468E-4,5C000000,-0724,0944,11150,027.8,045.4,0.389,729.0,01.19,0.508
2013-09-10 01:43:00,1488E-4,5C000000,-0724,0944,11141,027.8,045.4,0.389,729.0,01.19,0.508
2013-09-10 01:44:00,1113E-4,5C000000,-0724,0945,11155,027.8,045.4,0.389,729.0,01.19,0.508
2013-09-10 01:45:00,1301E-4,5C000000,-0724,0944,11017,027.8,045.3,0.389,729.0,01.19,0.508
2013-09-10 01:46:00,3189E-5,5C000000,-0724,0943,11025,027.8,045.4,0.389,729.0,01.19,0.508
2013-09-10 01:47:00,1581E-4,5C000000,-0724,0943,11014,027.8,045.4,0.389,729.0,01.19,0.508
2013-09-10 01:48:00,1853E-4,5C000000,-0724,0944,11206,027.8,045.3,0.389,729.0,01.19,0.508
2013-09-10 01:49:00,9221E-5,5C000000,-0724,0944,11062,027.8,045.4,0.389,729.0,01.19,0.508
2013-09-10 01:50:00,8785E-5,5C000000,-0724,0944,11205,027.8,045.4,0.389,729.0,01.19,0.508
2013-09-10 01:51:00,1701E-4,5C000000,-0724,0944,11108,027.8,045.4,0.389,729.0,01.19,0.508
2013-09-10 01:52:00,1525E-4,5C000000,-0724,0943,10939,027.8,045.3,0.389,728.9,01.19,0.508
2013-09-10 01:53:00,1416E-4,5C000000,-0724,0944,11008,027.8,045.4,0.389,729.0,01.19,0.508
2013-09-10 01:54:00,1406E-4,5C000000,-0724,0943,10847,027.8,045.4,0.389,728.9,01.19,0.508
2013-09-10 01:55:00,2087E-4,5C000000,-0724,0943,11128,027.8,045.3,0.389,729.0,01.19,0.508
2013-09-10 01:56:00,1709E-4,5C000000,-0724,0943,11008,027.8,045.3,0.389,729.0,01.19,0.508
2013-09-10 01:57:00,3870E-5,5C000000,-0724,0944,11001,027.8,045.3,0.389,728.9,01.19,0.508
2013-09-10 01:58:00,1694E-4,5C000000,-0724,0944,11169,027.8,045.4,0.389,728.9,01.19,0.508
2013-09-10 01:59:00,1456E-4,5C000000,-0724,0943,11014,027.8,045.3,0.389,729.0,01.19,0.508
2013-09-10 02:00:00,9921E-5,5C000000,-0724,0944,11153,027.8,045.3,0.389,729.0,01.19,0.508
2013-09-10 02:01:00,1090E-4,5C000000,-0724,0943,11048,027.8,045.4,0.389,728.9,01.19,0.508
2013-09-10 02:02:00,1185E-4,5C000000,-0724,0944,11071,027.8,045.4,0.388,728.9,01.19,0.508
2013-09-10 02:03:00,1442E-4,5C000000,-0724,0944,11054,027.8,045.4,0.389,728.9,01.19,0.508
2013-09-10 02:04:00,1079E-4,5C000000,-0724,0943,11043,027.7,045.3,0.389,728.9,01.19,0.508
2013-09-10 02:05:00,2048E-4,5C000000,-0724,0944,11153,027.7,045.3,0.389,728.9,01.19,0.508
2013-09-10 02:06:00,5258E-5,5C000000,-0724,0944,11252,027.7,045.4,0.389,728.9,01.19,0.508
2013-09-10 02:07:00,6282E-5,5C000000,-0724,0945,10933,027.7,045.4,0.389,728.8,01.19,0.508
2013-09-10 02:08:00,9451E-5,5C000000,-0724,0944,11104,027.7,045.3,0.389,728.8,01.19,0.508
2013-09-10 02:09:00,1616E-4,5C000000,-0724,0945,11128,027.7,045.3,0.389,728.9,01.19,0.508
2013-09-10 02:10:00,1974E-4,5C000000,-0724,0943,11094,027.7,045.4,0.389,728.8,01.19,0.508
2013-09-10 02:11:00,1277E-4,5C000000,-0724,0945,11198,027.7,045.4,0.389,728.8,01.19,0.508
2013-09-10 02:12:00,8019E-5,5C000000,-0724,0944,11195,027.7,045.3,0.389,728.8,01.19,0.508
2013-09-10 02:13:00,6656E-5,5C000000,-0724,0944,11158,027.7,045.3,0.389,728.8,01.19,0.508
2013-09-10 02:14:00,2798E-5,5C000000,-0724,0943,11013,027.7,045.4,0.389,728.8,01.19,0.508
2013-09-10 02:15:00,4572E-5,5C000000,-0724,0943,11169,027.7,045.4,0.389,728.8,01.19,0.508
2013-09-10 02:16:00,1543E-4,5C000000,-0724,0944,11027,027.7,045.3,0.389,728.8,01.19,0.508
2013-09-10 02:17:00,1441E-4,5C000000,-0724,0945,11075,027.7,045.3,0.389,728.8,01.19,0.508
2013-09-10 02:18:00,1165E-4,5C000000,-0724,0945,11117,027.7,045.4,0.389,728.8,01.19,0.508
2013-09-10 02:19:00,1430E-4,5C000000,-0724,0944,11214,027.7,045.4,0.389,728.8,01.19,0.508
2013-09-10 02:20:00,2266E-4,5C000000,-0724,0944,11186,027.7,045.3,0.389,728.7,01.19,0.508
2013-09-10 02:21:00,1068E-4,5C000000,-0724,0944,11202,027.7,045.3,0.389,728.7,01.19,0.508
2013-09-10 02:22:00,9578E-5,5C000000,-0724,0944,11117,027.7,045.3,0.389,728.8,01.19,0.508
2013-09-10 02:23:00,1544E-4,5C000000,-0724,0944,10954,027.7,045.4,0.389,728.7,01.19,0.508
2013-09-10 02:24:00,2111E-4,5C000000,-0724,0943,11046,027.7,045.3,0.389,728.8,01.19,0.508
2013-09-10 02:25:00,1894E-4,5C000000,-0724,0945,11016,027.7,045.4,0.389,728.7,01.19,0.508
2013-09-10 02:26:00,9666E-5,5C000000,-0724,0944,11035,027.8,045.4,0.389,728.6,01.19,0.508
2013-09-10 02:27:00,1176E-4,5C000000,-0724,0943,11121,027.7,045.4,0.389,728.7,01.19,0.508
2013-09-10 02:28:00,1363E-4,5C000000,-0724,0944,11041,027.7,045.4,0.389,728.6,01.19,0.508
2013-09-10 02:29:00,8958E-5,5C000000,-0724,0944,11161,027.7,045.4,0.389,728.7,01.19,0.508
2013-09-10 02:30:00,2000E-4,5C000000,-0724,0944,11221,027.8,045.4,0.389,728.6,01.19,0.508
2013-09-10 02:31:00,6353E-5,5C000000,-0724,0943,10937,027.7,045.4,0.389,728.6,01.19,0.508
2013-09-10 02:32:00,1640E-4,5C000000,-0724,0944,11144,027.7,045.3,0.389,728.6,01.19,0.508
2013-09-10 02:33:00,1025E-4,5C000000,-0724,0944,11188,027.7,045.3,0.389,728.6,01.19,0.508
2013-09-10 02:34:00,1575E-4,5C000000,-0724,0944,11253,027.7,045.3,0.389,728.6,01.19,0.508
2013-09-10 02:35:00,1387E-4,5C000000,-0724,0944,11071,027.7,045.3,0.389,728.6,01.19,0.508
2013-09-10 02:36:00,1162E-4,5C000000,-0724,0944,10948,027.7,045.3,0.389,728.6,01.19,0.508
2013-09-10 02:37:00,1740E-4,5C000000,-0724,0944,11172,027.6,045.3,0.389,728.5,01.19,0.508
2013-09-10 02:38:00,1212E-4,5C000000,-0724,0944,11154,027.6,045.4,0.389,728.6,01.19,0.508
2013-09-10 02:39:00,8030E-5,5C000000,-0724,0943,11098,027.7,045.3,0.388,728.6,01.19,0.508
2013-09-10 02:40:00,1020E-4,5C000000,-0724,0943,11155,027.7,045.3,0.389,728.5,01.19,0.508
2013-09-10 02:41:00,1022E-4,5C000000,-0724,0944,11182,027.7,045.4,0.389,728.5,01.19,0.508
2013-09-10 02:42:00,1378E-4,5C000000,-0724,0944,11046,027.7,045.4,0.389,728.5,01.19,0.508
2013-09-10 02:43:00,1459E-4,5C000000,-0724,0944,10956,027.7,045.4,0.389,728.5,01.19,0.508
2013-09-10 02:44:00,8899E-5,5C000000,-0724,0945,11192,027.7,045.4,0.389,728.5,01.19,0.508
2013-09-10 02:45:00,5910E-5,5C000000,-0724,0944,11170,027.7,045.3,0.389,728.4,01.19,0.508
2013-09-10 02:46:00,1272E-4,5C000000,-0724,0945,10901,027.7,045.3,0.388,728.4,01.19,0.508
2013-09-10 02:47:00,1423E-4,5C000000,-0724,0943,10954,027.7,045.3,0.389,728.4,01.19,0.508
2013-09-10 02:48:00,1479E-4,5C000000,-0724,0944,11046,027.7,045.4,0.389,728.4,01.19,0.508
2013-09-10 02:49:00,2283E-5,5C000000,-0724,0944,11196,027.7,045.4,0.389,728.4,01.19,0.508
2013-09-10 02:50:00,1150E-4,5C000000,-0724,0943,11031,027.7,045.4,0.389,728.4,01.19,0.508
2013-09-10 02:51:00,8524E-5,5C000000,-0724,0944,11032,027.7,045.4,0.389,728.4,01.19,0.508
2013-09-10 02:52:00,6386E-5,5C000000,-0724,0943,10940,027.7,045.4,0.389,728.4,01.19,0.508
2013-09-10 02:53:00,1342E-4,5C000000,-0724,0944,11155,027.7,045.4,0.388,728.4,01.19,0.508
2013-09-10 02:54:00,1923E-4,5C000000,-0724,0944,10989,027.7,045.3,0.388,728.4,01.19,0.508
2013-09-10 02:55:00,1098E-4,5C000000,-0724,0945,11235,027.7,045.4,0.389,728.4,01.19,0.508
2013-09-10 02:56:00,1092E-4,5C000000,-0724,0944,10925,027.7,045.3,0.389,728.4,01.19,0.508
2013-09-10 02:57:00,1008E-4,5C000000,-0724,0943,11011,027.7,045.3,0.389,728.4,01.19,0.508
2013-09-10 02:58:00,1299E-4,5C000000,-0724,0944,11127,027.7,045.4,0.389,728.4,01.19,0.508
2013-09-10 02:59:00,1550E-4,5C000000,-0724,0944,11139,027.7,045.4,0.389,728.3,01.19,0.508
2013-09-10 03:00:00,9552E-5,5C000000,-0724,0943,10884,027.7,045.3,0.389,728.4,01.19,0.508
2013-09-10 03:01:00,1383E-4,5C000000,-0724,0943,11095,027.7,045.3,0.388,728.3,01.19,0.508
2013-09-10 03:02:00,1232E-4,5C000000,-0724,0943,11124,027.6,045.4,0.389,728.3,01.19,0.508
2013-09-10 03:03:00,7505E-5,5C000000,-0724,0944,11018,027.7,045.4,0.389,728.4,01.19,0.508
2013-09-10 03:04:00,7251E-5,5C000000,-0724,0944,10962,027.6,045.3,0.389,728.3,01.19,0.508
2013-09-10 03:05:00,7380E-5,5C000000,-0724,0944,11186,027.6,045.3,0.389,728.4,01.19,0.508
2013-09-10 03:06:00,7778E-5,5C000000,-0724,0944,11077,027.6,045.4,0.389,728.3,01.19,0.508
2013-09-10 03:07:00,1640E-4,5C000000,-0724,0944,11168,027.6,045.4,0.389,728.4,01.19,0.508
2013-09-10 03:08:00,1315E-4,5C000000,-0724,0944,11123,027.6,045.4,0.388,728.3,01.19,0.508
2013-09-10 03:09:00,1180E-4,5C000000,-0724,0944,11081,027.6,045.4,0.389,728.3,01.19,0.508
2013-09-10 03:10:00,9188E-5,5C000000,-0724,0943,11054,027.6,045.4,0.389,728.4,01.19,0.508
2013-09-10 03:11:00,6574E-5,5C000000,-0724,0944,11121,027.6,045.4,0.389,728.3,01.19,0.508
2013-09-10 03:12:00,1623E-4,5C000000,-0724,0944,10945,027.7,045.3,0.389,728.3,01.19,0.508
2013-09-10 03:13:00,1823E-4,5C000000,-0724,0944,11151,027.7,045.3,0.389,728.3,01.19,0.508
2013-09-10 03:14:00,8090E-5,5C000000,-0724,0943,11088,027.7,045.3,0.389,728.3,01.19,0.508
2013-09-10 03:15:00,1434E-4,5C000000,-0724,0944,10922,027.7,045.3,0.389,728.2,01.19,0.508
2013-09-10 03:16:00,1142E-4,5C000000,-0724,0943,10922,027.7,045.4,0.389,728.3,01.19,0.508
2013-09-10 03:17:00,2018E-4,5C000000,-0724,0944,11156,027.7,045.4,0.389,728.3,01.19,0.508
2013-09-10 03:18:00,8040E-5,5C000000,-0724,0944,11151,027.7,045.4,0.389,728.3,01.19,0.508
2013-09-10 03:19:00,9729E-5,5C000000,-0724,0944,11059,027.7,045.3,0.389,728.4,01.19,0.508
2013-09-10 03:20:00,2029E-4,5C000000,-0724,0944,11057,027.7,045.3,0.388,728.3,01.19,0.508
2013-09-10 03:21:00,1453E-4,5C000000,-0724,0942,11094,027.8,045.3,0.389,728.3,01.19,0.508
2013-09-10 03:22:00,8316E-5,5C000000,-0724,0941,10803,027.8,045.4,0.389,728.3,01.19,0.508
2013-09-10 03:23:00,1572E-4,5C000000,-0724,0944,11113,027.8,045.3,0.389,728.3,01.19,0.508
2013-09-10 03:24:00,7040E-5,5C000000,-0724,0943,11117,027.8,045.3,0.389,728.3,01.19,0.508
2013-09-10 03:25:00,4383E-5,5C000000,-0724,0943,11123,027.8,045.3,0.389,728.2,01.19,0.508
2013-09-10 03:26:00,6369E-5,5C000000,-0724,0943,11085,027.8,045.3,0.388,728.3,01.19,0.508
2013-09-10 03:27:00,1529E-4,5C000000,-0724,0942,11096,027.8,045.4,0.388,728.3,01.19,0.508
2013-09-10 03:28:00,1324E-4,5C000000,-0724,0942,11103,027.8,045.4,0.389,728.3,01.19,0.508
2013-09-10 03:29:00,1276E-4,5C000000,-0724,0943,11242,027.8,045.4,0.389,728.3,01.19,0.508
2013-09-10 03:30:00,1330E-4,5C000000,-0724,0942,10973,027.8,045.3,0.389,728.3,01.19,0.508
2013-09-10 03:31:00,5634E-5,5C000000,-0724,0945,11066,027.8,045.3,0.389,728.3,01.19,0.508
2013-09-10 03:32:00,8482E-5,5C000000,-0724,0943,11107,027.7,045.3,0.389,728.4,01.19,0.508
2013-09-10 03:33:00,9160E-5,5C000000,-0724,0943,10766,027.7,045.3,0.389,728.3,01.19,0.508
2013-09-10 03:34:00,4740E-5,5C000000,-0724,0944,11150,027.7,045.3,0.388,728.4,01.19,0.508
2013-09-10 03:35:00,1575E-4,5C000000,-0724,0942,11131,027.7,045.3,0.388,728.3,01.19,0.508
2013-09-10 03:36:00,1384E-4,5C000000,-0724,0943,11276,027.7,045.4,0.388,728.3,01.19,0.508
2013-09-10 03:37:00,9055E-5,5C000000,-0724,0943,11110,027.7,045.4,0.389,728.3,01.19,0.508
2013-09-10 03:38:00,5741E-5,5C000000,-0724,0943,11136,027.7,045.4,0.389,728.4,01.19,0.508
2013-09-10 03:39:00,1858E-4,5C000000,-0724,0944,11110,027.7,045.4,0.389,728.3,01.19,0.508
2013-09-10 03:40:00,1388E-4,5C000000,-0724,0942,11124,027.7,045.3,0.389,728.3,01.19,0.508
2013-09-10 03:41:00,5000E-5,5C000000,-0724,0944,11026,027.7,045.3,0.389,728.4,01.19,0.508
2013-09-10 03:42:00,1138E-4,5C000000,-0724,0944,10962,027.7,045.3,0.388,728.3,01.19,0.508
2013-09-10 03:43:00,7518E-5,5C000000,-0724,0943,11153,027.7,045.3,0.388,728.3,01.19,0.508
2013-09-10 03:44:00,7528E-5,5C000000,-0724,0943,11091,027.7,045.3,0.389,728.3,01.19,0.508
2013-09-10 03:45:00,1243E-4,5C000000,-0724,0944,11122,027.7,045.3,0.389,728.3,01.19,0.508
2013-09-10 03:46:00,1010E-4,5C000000,-0724,0943,11015,027.7,045.3,0.389,728.3,01.19,0.508
2013-09-10 03:47:00,1107E-4,5C000000,-0724,0944,11067,027.7,045.4,0.389,728.3,01.19,0.508
2013-09-10 03:48:00,1036E-4,5C000000,-0724,0943,11156,027.7,045.3,0.389,728.2,01.19,0.508
2013-09-10 03:49:00,1868E-4,5C000000,-0724,0942,11229,027.7,045.3,0.388,728.2,01.19,0.508
2013-09-10 03:50:00,1096E-4,5C000000,-0724,0942,11074,027.7,045.3,0.388,728.3,01.19,0.508
2013-09-10 03:51:00,1823E-4,5C000000,-0724,0943,11006,027.7,045.4,0.389,728.2,01.19,0.508
2013-09-10 03:52:00,1051E-4,5C000000,-0724,0943,11190,027.7,045.3,0.389,728.2,01.19,0.508
2013-09-10 03:53:00,1035E-4,5C000000,-0724,0944,11076,027.7,045.4,0.389,728.2,01.19,0.508
2013-09-10 03:54:00,1185E-4,5C000000,-0724,0944,11161,027.7,045.4,0.389,728.2,01.19,0.508
2013-09-10 03:55:00,1166E-4,5C000000,-0724,0943,11039,027.7,045.4,0.388,728.2,01.19,0.508
2013-09-10 03:56:00,1245E-4,5C000000,-0724,0943,11136,027.7,045.4,0.389,728.2,01.19,0.508
2013-09-10 03:57:00,9661E-5,5C000000,-0724,0943,11103,027.7,045.3,0.389,728.2,01.19,0.508
2013-09-10 03:58:00,1393E-4,5C000000,-0724,0944,10922,027.7,045.3,0.389,728.1,01.19,0.508
2013-09-10 03:59:00,1318E-4,5C000000,-0724,0943,11191,027.7,045.3,0.389,728.2,01.19,0.508
2013-09-10 04:00:00,1073E-4,5C000000,-0724,0944,11162,027.7,045.3,0.389,728.1,01.19,0.508
2013-09-10 04:01:00,1790E-4,5C000000,-0724,0944,11011,027.7,045.3,0.388,728.1,01.19,0.508
2013-09-10 04:02:00,5964E-5,5C000000,-0724,0944,11188,027.7,045.3,0.388,728.1,01.19,0.508
2013-09-10 04:03:00,1116E-4,5C000000,-0724,0944,11034,027.7,045.4,0.389,728.1,01.19,0.508
2013-09-10 04:04:00,9637E-5,5C000000,-0724,0943,10980,027.7,045.4,0.389,728.1,01.19,0.508
2013-09-10 04:05:00,7837E-5,5C000000,-0724,0942,11047,027.7,045.4,0.389,728.1,01.19,0.508
2013-09-10 04:06:00,7463E-5,5C000000,-0724,0944,11024,027.7,045.4,0.388,728.1,01.19,0.508
2013-09-10 04:07:00,1240E-4,5C000000,-0724,0942,11068,027.7,045.3,0.388,728.1,01.19,0.508
2013-09-10 04:08:00,2030E-4,5C000000,-0724,0941,11129,027.7,045.4,0.388,728.1,01.19,0.508
2013-09-10 04:09:00,1060E-4,5C000000,-0724,0941,11041,027.6,045.4,0.389,728.1,01.19,0.508
2013-09-10 04:10:00,8232E-5,5C000000,-0724,0944,11024,027.6,045.4,0.389,728.1,01.19,0.508
2013-09-10 04:11:00,1556E-4,5C000000,-0724,0943,10918,027.6,045.4,0.389,728.1,01.19,0.508
2013-09-10 04:12:00,7788E-5,5C000000,-0724,0944,11161,027.7,045.3,0.389,728.1,01.19,0.508
2013-09-10 04:13:00,7039E-5,5C000000,-0724,0943,10963,027.7,045.3,0.389,728.1,01.19,0.508
2013-09-10 04:14:00,1014E-4,5C000000,-0724,0943,10959,027.7,045.3,0.388,728.1,01.19,0.508
2013-09-10 04:15:00,1362E-4,5C000000,-0724,0942,11019,027.7,045.3,0.389,728.1,01.19,0.508
2013-09-10 04:16:00,1595E-4,5C000000,-0724,0943,11025,027.7,045.4,0.389,728.0,01.19,0.508
2013-09-10 04:17:00,1014E-4,5C000000,-0724,0944,10964,027.6,045.3,0.389,728.0,01.19,0.508
2013-09-10 04:18:00,1287E-4,5C000000,-0724,0944,11081,027.6,045.4,0.389,728.1,01.19,0.508
2013-09-10 04:19:00,1095E-4,5C000000,-0724,0942,11147,027.6,045.4,0.389,728.1,01.19,0.508
2013-09-10 04:20:00,1610E-4,5C000000,-0724,0943,10814,027.6,045.3,0.388,728.0,01.19,0.508